Location: Carabito
(9.8355°N, 67.9249°W)
Time: 10:08:43
(UTC+00:00)

BlueWalker 3 - Pass Details

Date: 23 May 2024
Orbit: 480 x 494 km, 53.2° (Epoch: 20 June)

Event Time Altitude Azimuth Distance (km) Brightness Sun altitude
Exits shadow 09:01:34 17° 187° (S) 1,278 3.7 -16.3°
Maximum altitude 09:04:04 40° 123° (ESE) 715 2.9 -15.8°
Drops below altitude 10° 09:07:33 10° 53° (NE) 1,643 5.9 -15.0°
Sets 09:09:47 0° 45° (NE) 2,522 6.9 -14.5°
